Location: Home
(42.5358°N, 72.7383°W)
Time: 13:03:08
(UTC-05:00)

Transit 2A Rocket - All Passes

Search period start: 06 December 2021 00:00
Search period end: 16 December 2021 00:00
Orbit: 584 x 918 km, 66.7° (Epoch: 05 December)

Date Brightness Start Highest point End Pass type
(mag) Time Alt. Az. Time Alt. Az. Time Alt. Az.
06 Dec - 05:01:35 10° ESE 05:01:56 10° E 05:02:18 10° E visible
06 Dec - 06:37:46 10° SSW 06:43:22 72° ESE 06:49:25 10° NE daylight
06 Dec - 08:21:57 10° W 08:26:39 24° NW 08:31:33 10° NNE daylight
06 Dec - 13:39:35 10° N 13:43:20 16° NE 13:46:59 10° ENE daylight
06 Dec - 15:21:09 10° NNW 15:27:13 67° ENE 15:32:52 10° SE daylight
06 Dec - 17:04:58 10° WNW 17:09:13 21° WSW 17:13:16 10° SSW visible
07 Dec - 05:55:33 10° S 06:00:50 43° ESE 06:06:30 10° NE visible
07 Dec - 07:38:20 10° WSW 07:43:36 35° NW 07:49:10 10° NNE daylight
07 Dec - 09:27:07 10° NW 09:28:10 10° NNW 09:29:15 10° NNW daylight
07 Dec - 12:57:44 10° N 13:00:00 12° NNE 13:02:13 10° NE daylight
07 Dec - 14:38:35 10° NNW 14:44:22 43° NE 14:49:48 10° ESE daylight
07 Dec - 16:21:33 10° NW 16:26:53 34° WSW 16:31:53 10° S daylight
08 Dec - 05:13:51 10° SSE 05:18:26 26° ESE 05:23:17 10° NE visible
08 Dec - 06:55:05 10° SW 07:00:40 54° NW 07:06:39 10° NNE daylight
08 Dec - 08:41:41 10° WNW 08:44:46 14° NNW 08:47:56 10° N daylight
08 Dec - 13:56:08 10° NNW 14:01:22 29° NE 14:06:21 10° ESE daylight
08 Dec - 15:38:31 10° NW 15:44:24 57° WSW 15:49:53 10° SSE daylight
09 Dec - 04:32:59 10° SE 04:36:10 15° ESE 04:39:26 10° ENE visible
09 Dec - 06:12:13 10° SSW 06:17:54 85° WNW 06:24:02 10° NNE visible
09 Dec - 07:57:17 10° W 08:01:31 20° NW 08:05:51 10° N daylight
09 Dec - 13:13:49 10° N 13:18:14 20° NE 13:22:30 10° E daylight
09 Dec - 14:55:43 10° NNW 15:01:48 88° ENE 15:07:26 10° SSE daylight
09 Dec - 16:40:31 10° WNW 16:43:28 14° W 16:46:21 10° SW visible
10 Dec - 05:29:43 10° SSW 05:35:16 60° ESE 05:41:14 10° NE visible
10 Dec - 07:13:23 10° WSW 07:18:22 28° NW 07:23:33 10° NNE daylight
10 Dec - 12:31:43 10° N 12:34:58 15° NNE 12:38:10 10° ENE daylight
10 Dec - 14:13:04 10° NNW 14:19:02 56° NE 14:24:36 10° SE daylight
10 Dec - 15:56:31 10° NW 16:01:13 25° WSW 16:05:38 10° SSW daylight
11 Dec - 04:47:39 10° S 04:52:47 36° ESE 04:58:14 10° NE visible
11 Dec - 06:29:55 10° WSW 06:35:22 41° NW 06:41:07 10° NNE visible
11 Dec - 08:17:41 10° NW 08:19:46 12° NNW 08:21:52 10° N daylight
11 Dec - 11:50:16 10° NNE 11:51:35 11° NNE 11:52:53 10° NE daylight
11 Dec - 13:30:32 10° NNW 13:36:07 37° NE 13:41:23 10° ESE daylight
11 Dec - 15:13:16 10° NW 15:18:50 41° WSW 15:24:00 10° S daylight
12 Dec - 04:06:12 10° SSE 04:10:26 22° ESE 04:14:51 10° ENE visible
12 Dec - 05:46:48 10° SW 05:52:29 64° NW 05:58:34 10° NNE visible
12 Dec - 07:32:50 10° WNW 07:36:25 16° NW 07:40:05 10° N daylight
12 Dec - 12:48:08 10° NNW 12:53:05 25° NE 12:57:48 10° E daylight
12 Dec - 14:30:20 10° NW 14:36:19 68° WSW 14:41:50 10° SSE daylight
13 Dec - 03:25:55 10° ESE 03:28:11 12° E 03:30:30 10° ENE visible
13 Dec - 05:04:03 10° SSW 05:09:46 82° ESE 05:15:53 10° NNE visible
13 Dec - 06:48:38 10° W 06:53:11 22° NW 06:57:53 10° N daylight
13 Dec - 12:05:53 10° N 12:09:54 18° NE 12:13:47 10° ENE daylight
13 Dec - 13:47:35 10° NNW 13:53:38 75° ENE 13:59:14 10° SE daylight
13 Dec - 15:31:48 10° WNW 15:35:29 17° WSW 15:39:02 10° SW daylight
14 Dec - 04:21:43 10° S 04:27:11 50° ESE 04:33:02 10° NE visible
14 Dec - 06:04:54 10° WSW 06:10:06 32° NW 06:15:32 10° NNE visible
14 Dec - 11:23:55 10° N 11:26:35 13° NNE 11:29:13 10° NE daylight
14 Dec - 13:04:58 10° NNW 13:10:50 48° NE 13:16:16 10° SE daylight
14 Dec - 14:48:09 10° NW 14:53:11 29° WSW 14:57:55 10° SSW daylight
15 Dec - 03:39:50 10° SSE 03:44:45 30° ESE 03:49:55 10° NE visible
15 Dec - 05:21:32 10° SW 05:27:08 48° NW 05:33:04 10° NNE visible
15 Dec - 07:08:37 10° WNW 07:11:22 13° NNW 07:14:09 10° N daylight
15 Dec - 12:22:30 10° NNW 12:27:52 32° NE 12:32:55 10° ESE daylight
15 Dec - 14:05:01 10° NW 14:10:45 49° WSW 14:16:03 10° S daylight
